| time (UTC) | temp C | wind direction | speed KPH | gust KPH | rain 1hr cm | rain 24hr cm | rain mn cm | humidity % | barometer mb |
| 20260510174546 | 21 | 240 | 0.0 | 8.0 | 0.00 | 0.64 | 0.00 | 65 | 1014.2 |
| 20260510173028 | 21 | 90 | 0.0 | 4.8 | 0.00 | 0.64 | 0.00 | 62 | 1014.0 |
| 20260510171528 | 21 | 205 | 0.0 | 3.2 | 0.00 | 0.64 | 0.00 | 66 | 1014.4 |
| 20260510170031 | 20 | 143 | 0.0 | 6.4 | 0.00 | 0.64 | 0.00 | 67 | 1014.2 |
| 20260510164523 | 20 | 227 | 0.0 | 4.8 | 0.00 | 0.64 | 0.00 | 71 | 1014.0 |
| 20260510163021 | 19 | 117 | 0.0 | 6.4 | 0.00 | 0.64 | 0.00 | 73 | 1014.3 |
| 20260510161516 | 18 | 238 | 0.0 | 0.0 | 0.00 | 0.64 | 0.00 | 76 | 1014.5 |
| 20260510160021 | 18 | 263 | 0.0 | 4.8 | 0.00 | 0.64 | 0.00 | 74 | 1014.5 |
| 20260510154512 | 18 | 189 | 1.6 | 6.4 | 0.00 | 0.66 | 0.00 | 73 | 1014.5 |
| 20260510153009 | 17 | 226 | 0.0 | 4.8 | 0.00 | 0.66 | 0.00 | 77 | 1014.4 |
| 20260510151506 | 17 | 165 | 1.6 | 6.4 | 0.00 | 0.66 | 0.00 | 80 | 1014.5 |
| 20260510150007 | 17 | 260 | 1.6 | 4.8 | 0.00 | 0.66 | 0.00 | 80 | 1014.5 |
| 20260510144503 | 16 | 233 | 0.0 | 6.4 | 0.00 | 0.66 | 0.00 | 82 | 1014.4 |
| 20260510143003 | 16 | 279 | 1.6 | 8.0 | 0.00 | 0.66 | 0.00 | 82 | 1014.6 |
| 20260510141557 | 15 | 206 | 0.0 | 6.4 | 0.00 | 0.66 | 0.00 | 84 | 1014.3 |
| 20260510140055 | 15 | 196 | 0.0 | 4.8 | 0.00 | 0.66 | 0.00 | 88 | 1014.4 |
| 20260510134555 | 13 | 259 | 0.0 | 4.8 | 0.00 | 0.69 | 0.00 | 92 | 1014.5 |
| 20260510133048 | 12 | 212 | 1.6 | 4.8 | 0.00 | 0.69 | 0.00 | 96 | 1014.5 |
| 20260510131544 | 11 | 228 | 0.0 | 0.0 | 0.00 | 0.69 | 0.00 | 97 | 1014.5 |
| 20260510130041 | 11 | 73 | 0.0 | 0.0 | 0.00 | 0.69 | 0.00 | 97 | 1014.4 |
| 20260510124538 | 11 | 123 | 0.0 | 0.0 | 0.00 | 0.69 | 0.00 | 97 | 1014.4 |
| 20260510123036 | 10 | 122 | 0.0 | 0.0 | 0.00 | 0.69 | 0.00 | 97 | 1014.2 |
| 20260510121535 | 10 | 123 | 0.0 | 0.0 | 0.00 | 0.69 | 0.00 | 97 | 1014.0 |
| 20260510120035 | 10 | 123 | 0.0 | 0.0 | 0.00 | 0.69 | 0.00 | 98 | 1013.9 |
| 20260510114537 | 10 | 123 | 0.0 | 0.0 | 0.00 | 0.69 | 0.00 | 98 | 1013.9 |
| 20260510113029 | 10 | 123 | 0.0 | 0.0 | 0.00 | 0.69 | 0.00 | 98 | 1013.5 |
| 20260510111529 | 10 | 177 | 0.0 | 0.0 | 0.00 | 0.69 | 0.00 | 98 | 1013.4 |
| 20260510110032 | 10 | 206 | 0.0 | 0.0 | 0.00 | 0.69 | 0.00 | 97 | 1013.5 |
| 20260510104527 | 9 | 236 | 0.0 | 0.0 | 0.00 | 0.69 | 0.00 | 97 | 1013.0 |
| 20260510103028 | 9 | 237 | 0.0 | 0.0 | 0.00 | 0.69 | 0.00 | 97 | 1013.1 |
| 20260510101527 | 9 | 181 | 0.0 | 1.6 | 0.00 | 0.69 | 0.00 | 97 | 1012.9 |
| 20260510100032 | 9 | 143 | 0.0 | 0.0 | 0.00 | 0.69 | 0.00 | 97 | 1013.1 |
| 20260510094530 | 9 | 129 | 0.0 | 3.2 | 0.00 | 0.69 | 0.00 | 97 | 1012.6 |
| 20260510093036 | 9 | 136 | 0.0 | 0.0 | 0.00 | 0.69 | 0.00 | 97 | 1012.6 |
| 20260510091523 | 9 | 115 | 0.0 | 0.0 | 0.00 | 0.69 | 0.00 | 97 | 1012.6 |
| 20260510090024 | 9 | 125 | 0.0 | 0.0 | 0.00 | 0.69 | 0.00 | 97 | 1012.8 |
| 20260510084529 | 9 | 123 | 0.0 | 0.0 | 0.00 | 0.69 | 0.00 | 97 | 1012.8 |
| 20260510083020 | 9 | 123 | 0.0 | 0.0 | 0.00 | 0.69 | 0.00 | 97 | 1012.9 |
| 20260510081525 | 9 | 123 | 0.0 | 0.0 | 0.00 | 0.69 | 0.00 | 97 | 1013.1 |
| 20260510080021 | 10 | 123 | 0.0 | 0.0 | 0.00 | 0.69 | 0.00 | 97 | 1013.3 |
| 20260510074520 | 10 | 123 | 0.0 | 0.0 | 0.00 | 0.71 | 0.00 | 97 | 1013.5 |
| 20260510073022 | 10 | 254 | 0.0 | 0.0 | 0.00 | 0.71 | 0.00 | 97 | 1013.4 |
| 20260510071532 | 9 | 254 | 0.0 | 0.0 | 0.00 | 0.71 | 0.00 | 97 | 1013.3 |
| 20260510070018 | 10 | 254 | 0.0 | 0.0 | 0.00 | 0.71 | 0.00 | 97 | 1012.7 |
| 20260510064514 | 10 | 248 | 0.0 | 0.0 | 0.00 | 0.71 | 0.00 | 97 | 1012.6 |
| 20260510063020 | 10 | 245 | 0.0 | 0.0 | 0.00 | 0.71 | 0.00 | 97 | 1012.8 |
| 20260510061526 | 10 | 253 | 0.0 | 0.0 | 0.00 | 0.71 | 0.00 | 97 | 1013.1 |
| 20260510060012 | 10 | 253 | 0.0 | 0.0 | 0.00 | 0.71 | 0.00 | 97 | 1012.9 |
| 20260510054510 | 10 | 253 | 0.0 | 0.0 | 0.00 | 0.71 | 0.00 | 97 | 1012.7 |
| 20260510053009 | 10 | 253 | 0.0 | 0.0 | 0.00 | 0.71 | 0.00 | 97 | 1012.6 |
| 20260510051509 | 10 | 336 | 0.0 | 0.0 | 0.00 | 0.71 | 0.00 | 97 | 1012.6 |
| 20260510050011 | 10 | 335 | 0.0 | 0.0 | 0.00 | 0.71 | 0.00 | 97 | 1012.6 |
| 20260510044507 | 10 | 79 | 0.0 | 0.0 | 0.00 | 0.71 | 0.00 | 97 | 1012.6 |
| 20260510043013 | 10 | 191 | 0.0 | 0.0 | 0.00 | 0.71 | 0.00 | 97 | 1012.7 |
| 20260510041505 | 10 | 191 | 0.0 | 0.0 | 0.00 | 0.71 | 0.00 | 97 | 1012.7 |
| 20260510040003 | 10 | 211 | 0.0 | 0.0 | 0.00 | 0.71 | 0.71 | 97 | 1012.7 |
| 20260510034503 | 10 | 226 | 0.0 | 0.0 | 0.00 | 0.71 | 0.71 | 97 | 1012.5 |
| 20260510033001 | 10 | 226 | 0.0 | 0.0 | 0.00 | 0.71 | 0.71 | 97 | 1012.5 |
| 20260510031502 | 10 | 245 | 0.0 | 0.0 | 0.00 | 0.71 | 0.71 | 97 | 1012.6 |
| 20260510030100 | 10 | 253 | 0.0 | 0.0 | 0.00 | 0.71 | 0.71 | 97 | 1012.8 |
| 20260510030004 | 10 | 253 | 0.0 | 0.0 | 0.00 | 0.71 | 0.71 | 97 | 1012.8 |
| 20260510024603 | 10 | 240 | 0.0 | 0.0 | 0.00 | 0.71 | 0.71 | 97 | 1012.8 |
| 20260510023059 | 10 | 186 | 0.0 | 0.0 | 0.00 | 0.71 | 0.71 | 97 | 1012.6 |
| 20260510023001 | 10 | 186 | 0.0 | 0.0 | 0.00 | 0.71 | 0.71 | 97 | 1012.6 |
| 20260510021603 | 10 | 241 | 0.0 | 0.0 | 0.00 | 0.71 | 0.71 | 97 | 1012.8 |
| 20260510020058 | 10 | 241 | 0.0 | 0.0 | 0.00 | 0.71 | 0.71 | 97 | 1012.7 |
| 20260510014557 | 10 | 241 | 0.0 | 0.0 | 0.00 | 0.71 | 0.71 | 97 | 1012.7 |
| 20260510013058 | 10 | 233 | 0.0 | 0.0 | 0.00 | 0.71 | 0.71 | 97 | 1012.5 |
| 20260510011558 | 10 | 242 | 0.0 | 0.0 | 0.00 | 0.71 | 0.71 | 96 | 1012.4 |
| 20260510010055 | 10 | 229 | 0.0 | 0.0 | 0.00 | 0.71 | 0.71 | 96 | 1012.3 |
| 20260510004556 | 10 | 260 | 0.0 | 1.6 | 0.00 | 0.71 | 0.71 | 96 | 1012.0 |
| 20260510003110 | 10 | 243 | 0.0 | 0.0 | 0.00 | 0.71 | 0.71 | 96 | 1011.9 |
| 20260510001554 | 10 | 257 | 0.0 | 0.0 | 0.00 | 0.71 | 0.71 | 96 | 1011.7 |
| 20260510000100 | 10 | 257 | 0.0 | 0.0 | 0.00 | 0.71 | 0.71 | 96 | 1011.6 |
| 20260509234603 | 10 | 219 | 0.0 | 1.6 | 0.00 | 0.71 | 0.71 | 96 | 1011.5 |
| 20260509233052 | 10 | 270 | 0.0 | 0.0 | 0.00 | 0.71 | 0.71 | 96 | 1011.6 |
| 20260509231554 | 10 | 259 | 0.0 | 3.2 | 0.03 | 0.71 | 0.71 | 96 | 1011.7 |
| 20260509230059 | 10 | 227 | 0.0 | 4.8 | 0.03 | 0.71 | 0.71 | 96 | 1011.6 |
| 20260509224549 | 10 | 134 | 0.0 | 6.4 | 0.03 | 0.71 | 0.71 | 96 | 1011.6 |
| 20260509223049 | 10 | 124 | 0.0 | 0.0 | 0.03 | 0.71 | 0.71 | 96 | 1011.7 |
| 20260509221547 | 10 | 159 | 0.0 | 0.0 | 0.03 | 0.71 | 0.71 | 95 | 1011.8 |
| 20260509220047 | 10 | 212 | 0.0 | 0.0 | 0.08 | 0.71 | 0.71 | 95 | 1012.2 |
| 20260509214545 | 10 | 155 | 0.0 | 3.2 | 0.18 | 0.71 | 0.71 | 95 | 1012.4 |
| 20260509213044 | 10 | 242 | 0.0 | 0.0 | 0.23 | 0.71 | 0.71 | 95 | 1012.4 |
| 20260509211545 | 10 | 233 | 0.0 | 0.0 | 0.25 | 0.69 | 0.69 | 95 | 1012.3 |
| 20260509210049 | 10 | 228 | 0.0 | 0.0 | 0.23 | 0.61 | 0.61 | 95 | 1012.4 |
| 20260509204544 | 11 | 227 | 0.0 | 1.6 | 0.18 | 0.53 | 0.53 | 94 | 1012.4 |
| 20260509203042 | 11 | 227 | 0.0 | 1.6 | 0.15 | 0.48 | 0.48 | 94 | 1012.5 |
| 20260509201543 | 11 | 247 | 0.0 | 3.2 | 0.15 | 0.43 | 0.43 | 94 | 1012.6 |
| 20260509200040 | 11 | 234 | 0.0 | 0.0 | 0.13 | 0.38 | 0.38 | 94 | 1012.7 |
| 20260509194539 | 11 | 234 | 0.0 | 1.6 | 0.15 | 0.36 | 0.36 | 94 | 1012.8 |
| 20260509193039 | 11 | 243 | 0.0 | 1.6 | 0.20 | 0.33 | 0.33 | 94 | 1012.9 |
| 20260509191540 | 12 | 257 | 0.0 | 3.2 | 0.15 | 0.28 | 0.28 | 94 | 1013.2 |
| 20260509190044 | 12 | 249 | 0.0 | 3.2 | 0.13 | 0.25 | 0.25 | 93 | 1013.4 |
| 20260509184536 | 12 | 251 | 0.0 | 4.8 | 0.10 | 0.20 | 0.20 | 92 | 1013.1 |
| 20260509183045 | 12 | 193 | 0.0 | 0.0 | 0.03 | 0.13 | 0.13 | 91 | 1012.8 |
| 20260509181544 | 12 | 193 | 0.0 | 0.0 | 0.03 | 0.13 | 0.13 | 91 | 1012.7 |
| 20260509180034 | 12 | 245 | 0.0 | 0.0 | 0.00 | 0.10 | 0.10 | 92 | 1012.6 |